Flag for Hungary Weather past 2 weeks in Miskolc, Hungary

Now
64 °F

Passing clouds.


Feels Like: 64 °F
Forecast: 62 / 86 °F
Wind: 1 mph from West

Location: Miskolc

Current Time: Jul 26, 2014 at 5:10:57 AM

Latest Report: Jul 26, 2014 at 4:00 AM


Visibility: 16 mi

Pressure: 29.96 "Hg

Humidity: 88%

Dew point: 60 °F

Location of MiskolcLocation

Historic Weather in Miskolc — Graph

°F

Miskolc temperature yesterday

Maximum temperature yesterday: 81 °F (at 2:00 PM)
Minimum temperature yesterday: 61 °F (at 5:00 AM)
Average temperature yesterday: 71 °F

Past Weeks' High & Low Weather Summary

 TemperatureHumidityPressure
High90 °F (Jul 21, 3:00 PM)93% (Jul 12, 1:00 AM)30.05 "Hg (Jul 12, 1:00 AM)
Low60 °F (Jul 13, 2:00 AM)36% (Jul 19, 5:00 PM)29.58 "Hg (Jul 11, 7:00 PM)
Average72 °F69%29.89 "Hg
* Reported Jul 11 3:00 AM — Jul 26 3:00 AM, Miskolc, Weather by CustomWeather, © 2014

Note: Actual official high and low records may vary slightly from our data, if they occured in-between our weather recording intervals... More about our weather records

Advertising

Miskolc weather history for previous 24 hours

 ConditionsComfort  
Time TempWeatherWind HumidityBarometerVisibility
3:00 AM
Jul 26
65 °FOvercast.1 mph86%29.96 "Hg16 mi
2:00 AM65 °FPassing clouds.No wind85%29.96 "Hg19 mi
1:00 AM66 °FPassing clouds.1 mph84%29.96 "Hg19 mi
12:00 AM67 °FPassing clouds.1 mph84%29.96 "Hg19 mi
11:00 PM
Jul 25
68 °FMild.1 mph82%29.95 "HgN/A
10:00 PM70 °FPassing clouds.1 mph80%29.94 "Hg19 mi
9:00 PM72 °FPassing clouds.2 mph76%29.92 "Hg22 mi
8:00 PM76 °FPartly sunny.1 mph64%29.90 "Hg22 mi
7:00 PM78 °FOvercast.1 mph58%29.90 "Hg25 mi
6:00 PM78 °FOvercast.2 mph61%29.89 "Hg22 mi
5:00 PM77 °FOvercast.2 mph65%29.90 "Hg22 mi
4:00 PM78 °FOvercast.3 mph58%29.90 "Hg22 mi
3:00 PM81 °FOvercast.2 mph50%29.90 "Hg25 mi
2:00 PM81 °FPartly sunny.1 mph52%29.90 "Hg25 mi
1:00 PM80 °FPartly sunny.2 mph57%29.90 "Hg25 mi
12:00 PM79 °FScattered clouds.2 mph61%29.91 "Hg25 mi
11:00 AM75 °FScattered clouds.1 mph69%29.92 "Hg22 mi
10:00 AM71 °FPartly sunny.No wind76%29.92 "Hg19 mi
9:00 AM69 °FScattered clouds.No wind81%29.92 "Hg19 mi
8:00 AM68 °FOvercast.1 mph80%29.91 "Hg16 mi
7:00 AM64 °FPartly sunny.1 mph87%29.91 "Hg16 mi
6:00 AM61 °FPartly sunny.No wind91%29.90 "Hg12 mi
5:00 AM61 °FPassing clouds.1 mph90%29.90 "Hg12 mi
Weather by CustomWeather, © 2014

See weather overviewHow to use our weather pages